Wind_Speed
39 40 41 44 46 47 43 45 41 48 49 45 38 36 39 37 37 37 37 29 22 23
39 40 41 39 40 45 46 44 42 44 47 43 38 39 35 34 35 34 30 29 28 27
39 39 39 39 38 39 39 41 42 44 43 41 42 39 36 35 34 31 28 33 34 38
40 38 37 38 39 40 40 41 41 41 43 43 41 39 38 34 32 36 38 41 34 34
42 41 39 36 35 38 40 40 42 43 41 41 35 35 28 30 32 34 35 34 34 28
46 46 45 40 34 43 44 45 46 50 44 43 37 38 40 33 31 31 24 24 27 27
51 49 46 43 45 35 41 37 43 41 36 37 38 38 34 33 28 23 22 23 26 28
47 49 48 47 48 44 40 37 43 43 42 40 38 31 31 32 26 25 25 26 25 23
37 40 42 45 49 52 49 45 43 45 43 35 35 39 35 27 29 27 27 27 26 23
33 34 36 40 44 46 48 50 47 43 40 35 29 29 29 28 27 27 26 24 23 23
31 33 35 36 40 40 42 41 41 37 31 29 29 31 30 27 26 23 22 21 21 20
29 31 34 36 38 37 34 32 30 28 26 26 28 29 27 25 23 22 21 21 20 19
27 28 30 31 33 32 29 27 27 28 26 27 26 24 23 21 19 18 19 19 19 19
24 23 23 24 24 25 27 28 30 29 26 25 22 21 20 17 17 16 17 17 16 15
Wind_Direction
216 218 221 224 227 231 236 238 237 233 237 244 256 262 271 268 270 272 279 278 275 247
219 222 224 230 233 234 235 235 237 237 237 248 258 265 268 270 269 270 290 269 259 271
225 226 230 234 236 235 238 241 245 244 247 253 262 262 263 266 270 266 260 260 265 273
231 231 233 238 241 242 243 245 248 252 255 258 261 262 259 261 264 265 263 261 267 265
235 234 235 239 249 252 249 252 254 254 258 259 264 269 266 264 265 266 271 268 264 250
238 235 233 232 243 247 250 250 253 258 260 260 258 268 259 272 267 263 260 256 247 241
239 240 241 239 239 244 243 245 247 256 256 259 259 269 256 269 262 248 253 246 249 245
244 244 243 243 241 244 250 248 250 252 255 263 258 257 259 267 241 242 239 236 237 235
245 245 246 242 245 243 247 249 250 253 263 262 253 249 248 253 238 232 235 230 227 232
242 243 243 242 243 248 249 249 253 257 255 255 256 251 238 233 230 229 227 224 231 235
237 238 239 242 244 248 251 250 252 249 252 243 242 231 224 229 226 219 221 227 227 226
231 236 240 241 244 246 244 243 244 247 234 227 214 222 226 225 220 219 217 217 220 226
231 239 243 243 244 244 243 241 231 219 211 210 209 209 209 212 215 212 215 222 233 228
230 236 236 242 242 239 226 217 205 202 193 192 194 191 191 197 217 222 221 216 222 234
Height
1482 1487 1492 1497 1502 1505 1508 1512 1516 1519 1522 1525 1528 1530 1533 1533 1534 1534 1533 1531 1531 1532
1478 1482 1486 1491 1495 1499 1502 1505 1510 1513 1517 1520 1522 1524 1524 1525 1526 1526 1527 1524 1527 1527
1473 1477 1482 1486 1488 1492 1496 1500 1503 1507 1510 1512 1513 1514 1515 1515 1517 1519 1518 1519 1520 1521
1466 1471 1476 1479 1482 1485 1488 1491 1495 1499 1502 1503 1502 1503 1505 1506 1507 1508 1510 1511 1512 1513
1458 1463 1467 1473 1476 1479 1480 1483 1486 1489 1489 1492 1493 1495 1497 1497 1496 1498 1500 1502 1503 1504
1446 1452 1456 1458 1459 1462 1465 1470 1473 1476 1480 1483 1483 1486 1488 1490 1490 1492 1493 1494 1496 1497
1436 1440 1445 1452 1455 1457 1459 1461 1462 1466 1471 1474 1475 1478 1481 1483 1483 1486 1487 1489 1491 1492
1425 1431 1438 1442 1447 1451 1454 1456 1457 1461 1464 1467 1468 1470 1473 1475 1477 1480 1482 1483 1484 1485
1420 1424 1428 1434 1437 1443 1447 1450 1452 1454 1456 1458 1459 1462 1466 1468 1472 1474 1475 1476 1477 1480
1414 1417 1421 1427 1430 1433 1438 1442 1446 1447 1449 1450 1455 1457 1459 1462 1465 1468 1469 1470 1474 1476
1407 1412 1415 1418 1422 1427 1430 1434 1436 1439 1441 1445 1447 1449 1452 1456 1459 1462 1464 1467 1469 1473
1401 1405 1408 1411 1415 1420 1423 1427 1430 1432 1435 1438 1440 1443 1446 1449 1453 1456 1460 1462 1465 1467
1397 1401 1405 1408 1411 1414 1417 1420 1423 1426 1429 1433 1436 1439 1442 1446 1450 1453 1456 1459 1462 1463
1392 1397 1401 1404 1407 1409 1411 1414 1417 1421 1424 1429 1432 1435 1439 1443 1447 1450 1453 1455 1458 1460